Regional Weather Roundup
Issued by NWS

Home | Current Version | Previous Version | Graphics & Text | Print | Product List | Glossary Off
Versions: 1 2 3 4 5 6 7 8 9 10 11 12 13 14 15 16 17 18 19 20 21 22 23 24 25 26 27 28 29 30 31 32 33 34 35 36 37 38 39 40 41 42 43 44 45 46 47 48 49 50

000
ASUS43 KMKX 302021
RWRWI

WISCONSIN REGIONAL WEATHER ROUNDUP
NATIONAL WEATHER SERVICE MILWAUKEE/SULLIVAN WI
300 PM CDT THU JUL 30 2015

NOTE: "FAIR" INDICATES FEW OR NO CLOUDS BELOW 12,000 FEET WITH NO
SIGNIFICANT WEATHER AND/OR OBSTRUCTIONS TO VISIBILITY.

WIZ001-002-006>008-014>016-023>028-302100-
NORTHWEST WISCONSIN

CITY           SKY/WX    TMP DP  RH WIND       PRES   REMARKS
SUPERIOR ARPT  MOSUNNY   82  55  40 NW20G25   29.93S HX  81
ASHLAND        PTSUNNY   73  61  65 N8        29.94R
HAYWARD        MOSUNNY   81  54  39 W10G21    29.97F HX  81
SIREN          PTSUNNY   79  53  40 W12G23    30.00F
CUMBERLAND     MOSUNNY   79  54  41 W12G25    30.01F
RICE LAKE      SUNNY     79  59  49 W12G18    30.02F HX  80
CHETEK         MOSUNNY   82  59  45 W12G20    30.01S HX  82
LADYSMITH      PTSUNNY   81  55  40 W17G25    30.01S HX  81
EAU CLAIRE     MOSUNNY   84  56  38 W13       30.01S HX  83
MENOMONIE      SUNNY     84  53  33 W15G24    30.03S HX  82
NEW RICHMOND   SUNNY     82  54  39 NW14G20   30.04S HX  81
OSCEOLA        MOSUNNY   81  57  43 W9G25     30.05F HX  81
$$

WIZ003>005-009-010-017-018-302100-
NORTH CENTRAL WISCONSIN

CITY           SKY/WX    TMP DP  RH WIND       PRES   REMARKS
MANITOWISH WTR PTSUNNY   78  54  43 W16G30    29.95F
ARBOR VITAE    MOSUNNY   77  55  47 NW7       29.96S
WOODRUFF       MOSUNNY   77  55  47 NW7       29.96S
RHINELANDER    PTSUNNY   79  52  38 NW13G20   29.97F
EAGLE RIVER    PTSUNNY   77  51  39 NW9       29.96S
LAND O LAKES   MOSUNNY   74  50  42 W10       29.97R
PHILLIPS       SUNNY     78  59  51 W12G18    29.97F
TOMAHAWK       MOSUNNY   78  54  42 W12G18    29.98S
MEDFORD        MOSUNNY   78  56  47 W16G22    30.00S
MERRILL        NOT AVBL
$$

WIZ029-030-035-036-043>047-302100-
CENTRAL WISCONSIN

CITY           SKY/WX    TMP DP  RH WIND       PRES   REMARKS
WAUSAU         CLOUDY    80  54  40 W16G30    29.97S HX  80
MOSINEE        MOSUNNY   82  55  39 W20G25    30.00F HX  82
MARSHFIELD     MOSUNNY   83  53  35 NW18G24   30.01S HX  82
STEVENS POINT  MOSUNNY   81  51  35 W17G25    30.00S HX  80
WAUPACA        SUNNY     87  51  29 W12G21    29.97F HX  84
WAUTOMA        MOSUNNY   87  50  27 W18G26    29.99F HX  84
WISC RAPIDS    MOSUNNY   85  52  32 NW16G24   30.01S HX  83
CAMP DOUGLAS   MOSUNNY   84  54  34 W20G29    30.02S HX  83
$$

WIZ011>013-019>022-031-037>040-048>050-302100-
NORTHEAST WISCONSIN

CITY           SKY/WX    TMP DP  RH WIND       PRES   REMARKS
ANTIGO         SUNNY     81  54  39 W15G25    29.98S HX  80
SHAWANO        MOSUNNY   84  54  34 W14G20    29.94F HX  83
OCONTO         MOSUNNY   83  54  36 NW9G17    29.91S HX  82
STURGEON BAY   SUNNY     84  54  34 W17G24    29.94S HX  83
GREEN BAY      MOSUNNY   85  58  39 W15       29.94S HX  84
MANITOWOC      MOSUNNY   86  52  30 MISG      29.94S HX  84
APPLETON       PTSUNNY   82  52  34 W16G23    29.97F HX  81
CLINTONVILLE   MOSUNNY   86  50  28 W15G22    29.94F HX  84
OSHKOSH        MOSUNNY   85  54  34 W17G28    29.96F HX  83
$$

WIZ032>034-041-042-053>061-302100-
SOUTHWEST WISCONSIN

CITY           SKY/WX    TMP DP  RH WIND       PRES   REMARKS
LA CROSSE      SUNNY     86  55  34 W16       30.03S HX  84
SPARTA         SUNNY     85  50  29 W14G20    30.04S HX  83
VIROQUA        SUNNY     82  55  39 W14G22    30.07S HX  81
BOSCOBEL       MOSUNNY   90  54  29 W14G22    30.05S HX  88
PRAIRIE DU CHI SUNNY     88  51  28 W15G22    30.05S HX  85
PLATTEVILLE    SUNNY     85  58  39 NW13G20   30.07F HX  85
$$

WIZ056-057-062-063-064-067-068-302100-
SOUTH CENTRAL WISCONSIN

CITY           SKY/WX    TMP DP  RH WIND       PRES   REMARKS
REEDSBURG      MOSUNNY   86  55  33 W18G28    30.03S HX  85
BARABOO/DELLS  MOSUNNY   87  48  25 W15G23    30.03S HX  84
LONE ROCK      SUNNY     88  52  29 NW21G26   30.03F HX  85
MINERAL POINT  SUNNY     86  46  25 W13G24    30.07F HX  83
MADISON        MOSUNNY   85  52  32 W14G22    30.02F HX  83
MIDDLETON      MOSUNNY   88  47  23 W16G23    30.04F HX  85
WATERTOWN      MOSUNNY   85  58  39 W12G18    30.01F HX  84
MONROE         SUNNY     86  50  28 W17G25    30.06F HX  84
JANESVILLE     MOSUNNY   88  48  25 NW14G26   30.04F HX  85
$$

WIZ051-052-058>065-066-070>072-302100-
SOUTHEAST WISCONSIN

CITY           SKY/WX    TMP DP  RH WIND       PRES   REMARKS
MILWAUKEE      MOSUNNY   86  51  29 W18G31    30.00F HX  84
WAUKESHA       MOSUNNY   84  52  32 W23G29    30.03F HX  82
MILWAUKEE/TIMM MOSUNNY   84  48  28 W14G28    30.00F HX  82
RACINE         MOSUNNY   87  53  31 NW15G22   30.02F HX  85
BURLINGTON     SUNNY     85  51  30 NW18G30   30.03S HX  83
KENOSHA        SUNNY     85  57  38 W15G29    30.02F HX  84
FOND DU LAC    MOSUNNY   88  55  32 W18       29.97F HX  86
SHEBOYGAN      MOSUNNY   85  54  34 W16G28    29.96F HX  83
WEST BEND      PTSUNNY   82  52  34 W9        30.00S HX  81
JUNEAU         MOSUNNY   82  55  39 W15G21    30.02S HX  82
$$

LSZ147-162-302100-
LAKE SUPERIOR

STATION/POSITION TIME  TEMP    WIND        PRES    WAVE
                       AIR SEA DIR/SP/G            HT/PER
                 (UTC) (F)     (DEG/KT/KT) (MB)    (FT/S)
W MID LAKE BUOY  1950   60 52  230/ 14/ 14 1011.6F   2/ 4
DEVILS ISLAND    2000   66     220/ 13/ 16 1013.0R
PORT WING        1905   70     320/ 22/ 37 1013.9R
SAXON HARBOR     2000   66                 1014.6
$$

LMZ867-665-643>646-302100-
LAKE MICHIGAN

STATION/POSITION TIME  TEMP    WIND        PRES    WAVE
                       AIR SEA DIR/SP/G            HT/PER
                 (UTC) (F)     (DEG/KT/KT) (MB)    (FT/S)
CHAMBERS ISLAND  1900   80     210/  3/ 13 1011.9S
S GREEN BAY BUOY 1930   75 67  290/ 14/ 16 1014.5F
N MID LAKE BUOY  1950   72 69  260/ 10/ 12 1011.3R   2/ 5
NORTHPORT PIER   1900   81     300/  8/ 14 1011.9S
SISTER BAY       1914   81     300/ 14/ 16   N/A
ALGOMA LAKESHORE 1927          310/ 15/ 25   N/A
KEWAUNEE LAKESHO 2000   84     300/ 11/ 17 1012.8F
SHEBOYGAN LAKESH 2000   83     280/ 20/ 23 1014.3F
PORT WASHINGTON  1900   85     280/ 11/ 22 1015.6
ATWATER BUOY     2000   77 58  260/ 16/ 23 1016.7F
MILWAUKEE LAKESH 2000   83     300/ 12/ 16   N/A
KENOSHA   LAKESH 2000   85     280/ 13/ 23 1015.6F
$$

TC  - TEMPERATURE IN CELSIUS
VSB - VISIBILITY IN STATUTE MILES
WCI - WIND CHILL INDEX
HX  - HEAT INDEX




USA.gov is the U.S. government's official web portal to all federal, state and local government web resources and services.